User: anonymous   Login
Location: Newark
(52.1031°N, 9.3600°E)
Time: 08:20:00
(UTC+00:00)
Language:

UNISAT 6 - Orbit

View from above orbital plane
View from above orbital plane
View from above satellite
View from above satellite

Ground track
Ground track

The orbit data is extracted from the following two-line orbital elements,

1 40012U 14033C   19341.89621889  .00000144  00000-0  28880-4 0  9996
2 40012  97.7319 200.8620 0056926 262.0962  97.3784 14.74041454294050
Epoch (UTC): 07 December 2019 21:30:33
Eccentricity: 0.0056926
inclination: 97.7319°
perigee height: 608 km
apogee height: 688 km
right ascension of ascending node: 200.8620°
argument of perigee: 262.0962°
revolutions per day: 14.74041454
mean anomaly at epoch: 97.3784°
orbit number at epoch: 29405

The dashed part of the orbit path shows where the satellite is in the earth's shadow,  

DLR